TimeCST,TemperatureF,Dew PointF,Humidity,Sea Level PressureIn,VisibilityMPH,Wind Direction,Wind SpeedMPH,Gust SpeedMPH,PrecipitationIn,Events,Conditions,WindDirDegrees,DateUTC
12:15 AM,56.5,54.9,94,30.25,5.0,NE,3.5,-,N/A,,Clear,40,2012-11-29 06:15:00
12:35 AM,55.9,54.3,94,30.25,5.0,NE,3.5,-,N/A,,Clear,40,2012-11-29 06:35:00
12:55 AM,55.4,53.8,94,30.25,5.0,NNE,3.5,-,N/A,,Clear,20,2012-11-29 06:55:00
1:15 AM,55.4,53.8,94,30.24,5.0,North,3.5,-,N/A,,Clear,10,2012-11-29 07:15:00
1:35 AM,54.7,53.2,95,30.23,5.0,NNE,4.6,-,N/A,,Clear,30,2012-11-29 07:35:00
1:55 AM,54.9,53.6,96,30.22,5.0,NE,3.5,-,N/A,,Clear,40,2012-11-29 07:55:00
2:15 AM,54.7,53.2,95,30.22,5.0,Calm,Calm,-,N/A,,Clear,0,2012-11-29 08:15:00
2:35 AM,54.5,53.1,95,30.22,5.0,Calm,Calm,-,N/A,,Clear,0,2012-11-29 08:35:00
2:55 AM,54.5,52.9,94,30.21,5.0,Calm,Calm,-,N/A,,Clear,0,2012-11-29 08:55:00
3:15 AM,53.6,52.3,95,30.20,4.0,Calm,Calm,-,N/A,,Clear,0,2012-11-29 09:15:00
3:35 AM,53.6,52.2,95,30.21,5.0,North,3.5,-,N/A,,Clear,350,2012-11-29 09:35:00
3:55 AM,53.6,52.0,94,30.20,5.0,North,3.5,-,N/A,,Clear,360,2012-11-29 09:55:00
4:15 AM,53.2,51.8,95,30.20,5.0,North,5.8,-,N/A,,Clear,10,2012-11-29 10:15:00
4:35 AM,53.6,52.2,95,30.20,5.0,NE,3.5,-,N/A,,Clear,40,2012-11-29 10:35:00
4:55 AM,53.6,52.2,95,30.19,5.0,NE,4.6,-,N/A,,Clear,50,2012-11-29 10:55:00
5:15 AM,53.6,52.2,95,30.19,5.0,NNE,4.6,-,N/A,,Clear,30,2012-11-29 11:15:00
5:35 AM,53.6,52.2,95,30.19,5.0,NNE,3.5,-,N/A,,Clear,20,2012-11-29 11:35:00
5:55 AM,53.8,52.3,95,30.20,5.0,NNE,3.5,-,N/A,,Clear,20,2012-11-29 11:55:00
6:15 AM,53.8,52.3,95,30.20,5.0,NE,3.5,-,N/A,,Clear,40,2012-11-29 12:15:00
6:35 AM,54.0,52.5,95,30.20,5.0,NNE,4.6,-,N/A,,Clear,30,2012-11-29 12:35:00
6:55 AM,53.6,52.0,94,30.21,5.0,NNE,3.5,-,N/A,,Clear,20,2012-11-29 12:55:00
7:15 AM,53.2,51.8,95,30.21,3.0,NNE,3.5,-,N/A,,Clear,20,2012-11-29 13:15:00
7:35 AM,53.6,52.2,95,30.21,2.5,NNE,3.5,-,N/A,,Clear,20,2012-11-29 13:35:00
7:55 AM,54.0,52.7,95,30.22,3.0,NNE,4.6,-,N/A,,Clear,30,2012-11-29 13:55:00
8:15 AM,55.0,53.4,94,30.22,4.0,NE,4.6,-,N/A,,Clear,40,2012-11-29 14:15:00
8:35 AM,57.6,55.4,92,30.22,5.0,ENE,6.9,-,N/A,,Clear,70,2012-11-29 14:35:00
8:55 AM,58.6,55.8,90,30.22,5.0,NE,4.6,-,N/A,,Clear,50,2012-11-29 14:55:00
9:15 AM,60.6,56.8,87,30.23,7.0,ENE,6.9,-,N/A,,Clear,70,2012-11-29 15:15:00
9:35 AM,61.7,57.2,85,30.23,10.0,NE,6.9,-,N/A,,Clear,40,2012-11-29 15:35:00
9:55 AM,63.0,58.1,84,30.23,10.0,ENE,5.8,-,N/A,,Clear,60,2012-11-29 15:55:00
10:15 AM,64.6,58.8,82,30.23,10.0,NE,5.8,-,N/A,,Clear,40,2012-11-29 16:15:00
10:35 AM,65.8,59.4,80,30.23,10.0,ENE,4.6,-,N/A,,Clear,70,2012-11-29 16:35:00
10:55 AM,67.3,60.1,78,30.23,10.0,NE,3.5,-,N/A,,Clear,50,2012-11-29 16:55:00
11:15 AM,68.5,60.3,75,30.22,10.0,Calm,Calm,-,N/A,,Clear,0,2012-11-29 17:15:00
11:35 AM,69.3,60.3,73,30.21,10.0,NE,5.8,-,N/A,,Clear,50,2012-11-29 17:35:00
12:15 PM,71.8,60.8,68,30.19,10.0,NNE,5.8,-,N/A,,Clear,30,2012-11-29 18:15:00
12:35 PM,74.1,60.8,63,30.18,10.0,ESE,5.8,-,N/A,,Clear,120,2012-11-29 18:35:00
12:55 PM,75.6,61.0,60,30.16,10.0,East,8.1,-,N/A,,Scattered Clouds,80,2012-11-29 18:55:00
1:15 PM,75.4,60.3,59,30.15,10.0,NE,3.5,-,N/A,,Mostly Cloudy,50,2012-11-29 19:15:00
1:35 PM,75.2,59.9,59,30.14,10.0,ENE,5.8,-,N/A,,Overcast,70,2012-11-29 19:35:00
1:55 PM,75.2,59.4,58,30.13,10.0,ESE,5.8,-,N/A,,Overcast,110,2012-11-29 19:55:00
2:15 PM,74.7,59.9,60,30.13,10.0,Calm,Calm,-,N/A,,Overcast,0,2012-11-29 20:15:00
2:35 PM,74.8,60.8,62,30.12,10.0,East,5.8,-,N/A,,Overcast,90,2012-11-29 20:35:00
3:15 PM,75.2,61.7,63,30.11,10.0,East,6.9,-,N/A,,Overcast,90,2012-11-29 21:15:00
3:35 PM,74.5,61.7,64,30.10,10.0,East,6.9,-,N/A,,Overcast,80,2012-11-29 21:35:00
3:55 PM,75.0,61.0,62,30.10,10.0,East,8.1,-,N/A,,Overcast,80,2012-11-29 21:55:00
4:15 PM,75.2,61.0,61,30.09,10.0,East,9.2,-,N/A,,Overcast,80,2012-11-29 22:15:00
4:35 PM,74.7,61.3,63,30.09,10.0,ENE,8.1,-,N/A,,Overcast,70,2012-11-29 22:35:00
4:55 PM,74.3,61.2,63,30.10,10.0,NE,5.8,-,N/A,,Overcast,50,2012-11-29 22:55:00
5:15 PM,73.9,61.0,64,30.10,10.0,NE,3.5,-,N/A,,Overcast,50,2012-11-29 23:15:00
5:35 PM,73.6,61.3,65,30.10,10.0,NE,3.5,-,N/A,,Overcast,40,2012-11-29 23:35:00
5:55 PM,73.4,61.7,67,30.11,10.0,Calm,Calm,-,N/A,,Overcast,0,2012-11-29 23:55:00
6:15 PM,72.7,61.3,67,30.12,10.0,NE,3.5,-,N/A,,Overcast,50,2012-11-30 00:15:00
6:35 PM,72.5,61.0,67,30.12,10.0,East,4.6,-,N/A,,Overcast,80,2012-11-30 00:35:00
6:55 PM,72.1,60.3,66,30.11,10.0,ESE,4.6,-,N/A,,Mostly Cloudy,120,2012-11-30 00:55:00
7:15 PM,72.1,60.4,67,30.12,10.0,ESE,4.6,-,N/A,,Overcast,110,2012-11-30 01:15:00
7:35 PM,72.1,60.8,67,30.13,10.0,ESE,3.5,-,N/A,,Overcast,110,2012-11-30 01:35:00
7:55 PM,71.8,60.8,68,30.13,10.0,Calm,Calm,-,N/A,,Overcast,0,2012-11-30 01:55:00
8:15 PM,71.2,61.0,70,30.13,10.0,Calm,Calm,-,N/A,,Mostly Cloudy,0,2012-11-30 02:15:00
8:35 PM,70.7,61.0,71,30.14,10.0,Calm,Calm,-,N/A,,Mostly Cloudy,0,2012-11-30 02:35:00
8:55 PM,68.9,61.7,78,30.14,10.0,Calm,Calm,-,N/A,,Overcast,0,2012-11-30 02:55:00
9:15 PM,69.6,61.3,75,30.14,10.0,Calm,Calm,-,N/A,,Overcast,0,2012-11-30 03:15:00
9:35 PM,68.9,62.1,79,30.15,10.0,Calm,Calm,-,N/A,,Overcast,0,2012-11-30 03:35:00
9:55 PM,69.4,62.2,78,30.15,10.0,Calm,Calm,-,N/A,,Overcast,0,2012-11-30 03:55:00
10:15 PM,68.9,62.6,80,30.14,10.0,Calm,Calm,-,N/A,,Overcast,0,2012-11-30 04:15:00
10:35 PM,69.1,62.6,80,30.14,10.0,ENE,3.5,-,N/A,,Overcast,60,2012-11-30 04:35:00
10:55 PM,69.1,62.6,80,30.14,10.0,ENE,3.5,-,N/A,,Overcast,60,2012-11-30 04:55:00
11:15 PM,68.9,62.8,81,30.14,10.0,ENE,3.5,-,N/A,,Overcast,60,2012-11-30 05:15:00
11:35 PM,68.7,63.0,82,30.14,10.0,Calm,Calm,-,N/A,,Overcast,0,2012-11-30 05:35:00
11:55 PM,68.4,63.1,83,30.13,10.0,Calm,Calm,-,N/A,,Overcast,0,2012-11-30 05:55:00